Location: Newark
(43.6486°N, 79.3853°W)
Time: 18:38:22
(UTC+00:00)

STARLINK-1265 - Pass Details

Date: 07 April 2020
Orbit: 371 x 385 km, 53.0° (Epoch: 02 June)

Event Time Altitude Azimuth Distance (km) Brightness Sun altitude
Exits shadow 07:59:40 13° 24° (NNE) 1,179 6.1 -27.7°
Drops below altitude 10° 08:00:17 10° 33° (NNE) 1,359 6.6 -27.6°
Enters shadow 08:53:28 -73° 251° (WSW) 12,359 10.5 -20.0°
